�N����,����,�~����,�C��,���x,�C��,����,���ϕ���,�ő�u�ԕ���,�ő厞����,���˗�,�I�_���x,�n�����x,�ő啗���N��,DTYPE
"19/08/02","00:10",0.0,26.9,81.4,1005.2,332.1,0.7,1.6,344.3,0.00,23.5,27.9,"00:00:02",1
"19/08/02","00:20",0.0,26.9,81.8,1005.2,350.5,1.1,1.8,345.8,0.00,23.6,27.9,"00:12:32",1
"19/08/02","00:30",0.0,26.9,81.5,1004.8,346.8,1.1,2.1,339.9,0.00,23.5,27.8,"00:23:20",1
"19/08/02","00:40",0.0,27.0,81.5,1004.8,345.0,1.5,2.4,351.6,0.00,23.6,27.6,"00:30:56",1
"19/08/02","00:50",0.0,26.8,81.9,1004.8,342.4,1.3,2.6,7.4,0.00,23.5,27.6,"00:47:28",1
"19/08/02","01:00",0.0,26.7,82.3,1005.0,341.7,0.8,2.0,340.5,0.00,23.5,27.3,"00:53:52",1
"19/08/02","01:10",0.0,26.6,82.7,1004.8,335.8,1.0,1.7,338.4,0.00,23.5,27.5,"01:08:32",1
"19/08/02","01:20",0.0,26.5,83.3,1005.0,332.0,1.0,1.9,347.8,0.00,23.5,27.4,"01:10:56",1
"19/08/02","01:30",0.0,26.4,83.7,1005.0,331.4,1.0,1.6,335.6,0.00,23.5,27.5,"01:20:24",1
"19/08/02","01:40",0.0,26.3,83.7,1004.8,335.5,1.3,2.6,341.3,0.00,23.4,27.3,"01:31:52",1
"19/08/02","01:50",0.0,26.3,84.1,1005.0,340.6,1.3,2.6,343.0,0.00,23.4,27.6,"01:46:48",1
"19/08/02","02:00",0.0,26.3,84.0,1005.2,335.7,1.2,2.2,336.5,0.00,23.4,27.3,"01:57:28",1
"19/08/02","02:10",0.0,26.3,84.0,1005.0,311.3,1.3,2.5,325.8,0.00,23.4,27.2,"02:00:56",1
"19/08/02","02:20",0.0,26.2,84.0,1005.2,308.2,1.0,1.8,339.1,0.00,23.3,27.2,"02:18:32",1
"19/08/02","02:30",0.0,26.2,84.5,1005.0,329.7,1.6,3.5,322.9,0.00,23.4,27.2,"02:28:32",1
"19/08/02","02:40",0.0,26.2,84.2,1005.5,336.2,1.6,2.5,325.7,0.00,23.4,27.3,"02:38:32",1
"19/08/02","02:50",0.0,26.1,84.4,1004.8,323.0,1.2,2.5,320.7,0.00,23.3,27.2,"02:46:48",1
"19/08/02","03:00",0.0,26.0,84.5,1005.2,328.0,1.3,2.4,337.3,0.00,23.2,27.0,"02:59:36",1
"19/08/02","03:10",0.0,26.0,84.7,1005.2,318.2,1.1,2.0,331.9,0.00,23.3,27.1,"03:00:16",1
"19/08/02","03:20",0.0,26.0,84.8,1005.5,334.9,1.8,2.9,344.1,0.00,23.3,27.0,"03:12:32",1
"19/08/02","03:30",0.0,26.0,84.9,1005.2,335.4,1.7,3.6,342.8,0.00,23.3,27.1,"03:25:52",1
"19/08/02","03:40",0.0,26.1,84.8,1005.5,323.8,1.5,2.4,335.6,0.00,23.4,26.8,"03:32:48",1
"19/08/02","03:50",0.0,26.0,85.1,1005.5,297.8,0.7,1.4,338.1,0.00,23.3,26.8,"03:40:16",1
"19/08/02","04:00",0.0,25.9,85.3,1005.5,311.3,0.8,1.7,271.3,0.00,23.3,26.9,"03:52:08",1
"19/08/02","04:10",0.0,26.0,85.6,1005.7,312.4,1.3,2.2,315.9,0.00,23.4,26.9,"04:05:16",1
"19/08/02","04:20",0.0,26.2,85.7,1005.7,332.4,1.3,3.3,338.4,0.00,23.7,26.7,"04:14:24",1
"19/08/02","04:30",0.0,26.2,85.3,1005.5,340.8,1.2,2.5,347.5,0.00,23.6,26.8,"04:26:32",1
"19/08/02","04:40",0.0,26.0,85.4,1005.7,335.6,1.6,2.6,326.0,0.00,23.4,26.8,"04:38:24",1
"19/08/02","04:50",0.0,25.8,85.9,1005.7,332.2,1.3,2.0,336.6,0.00,23.3,26.9,"04:46:08",1
"19/08/02","05:00",0.0,25.7,86.2,1006.0,336.0,1.2,3.4,349.4,0.00,23.3,26.7,"04:52:40",1
"19/08/02","05:10",0.0,25.7,86.7,1005.7,324.2,1.5,2.7,343.3,0.00,23.4,26.9,"05:09:36",1
"19/08/02","05:20",0.0,25.7,86.8,1006.2,324.7,1.5,3.4,346.4,0.00,23.4,26.9,"05:11:20",1
"19/08/02","05:30",0.0,25.6,87.0,1006.2,336.0,1.5,2.4,339.1,0.00,23.3,26.7,"05:28:40",1
"19/08/02","05:40",0.0,25.6,87.2,1006.0,328.0,1.6,3.4,343.6,0.00,23.4,26.6,"05:36:48",1
"19/08/02","05:50",0.0,25.8,87.3,1006.4,327.3,1.6,3.4,342.9,0.00,23.6,26.7,"05:48:08",1
"19/08/02","06:00",0.0,25.9,87.3,1006.7,340.8,1.7,3.1,332.4,0.00,23.7,26.6,"05:57:36",1
"19/08/02","06:10",0.0,25.8,87.0,1006.9,339.7,1.3,2.7,0.4,0.00,23.5,26.7,"06:06:40",1
"19/08/02","06:20",0.0,25.9,87.1,1006.4,334.3,1.5,3.6,339.6,0.00,23.6,26.5,"06:16:16",1
"19/08/02","06:30",0.0,26.0,87.2,1006.2,335.5,1.2,2.8,352.8,0.01,23.7,26.5,"06:26:40",1
"19/08/02","06:40",0.0,26.1,86.9,1006.7,332.0,1.2,2.0,347.1,0.02,23.8,26.7,"06:35:36",1
"19/08/02","06:50",0.0,26.4,86.6,1006.4,343.7,1.5,2.6,340.3,0.03,24.0,26.6,"06:49:04",1
"19/08/02","07:00",0.0,26.6,85.9,1006.2,344.3,1.5,3.2,340.7,0.05,24.1,26.7,"06:59:36",1
"19/08/02","07:10",0.0,27.1,85.0,1006.4,344.0,1.2,2.8,346.2,0.06,24.4,26.7,"07:00:56",1
"19/08/02","07:20",0.0,27.6,83.8,1006.2,344.4,0.8,1.8,357.0,0.07,24.7,26.8,"07:19:44",1
"19/08/02","07:30",0.0,28.1,82.6,1006.2,348.8,0.7,1.6,336.2,0.09,24.9,27.0,"07:20:08",1
"19/08/02","07:40",0.0,28.4,81.2,1006.2,356.2,0.7,1.3,352.7,0.10,24.9,27.0,"07:31:04",1
"19/08/02","07:50",0.0,28.5,79.7,1005.7,29.3,1.0,1.8,9.7,0.13,24.7,27.1,"07:47:44",1
"19/08/02","08:00",0.0,29.1,77.0,1006.0,62.9,0.5,1.1,47.8,0.15,24.7,27.0,"07:51:04",1
"19/08/02","08:10",0.0,29.6,77.2,1006.4,141.2,0.3,1.0,121.9,0.17,25.2,27.1,"08:04:56",1
"19/08/02","08:20",0.0,29.7,75.3,1006.9,54.1,0.5,1.4,63.0,0.19,24.9,27.4,"08:13:04",1
"19/08/02","08:30",0.0,30.2,74.0,1007.1,144.0,0.2,1.0,162.5,0.21,25.1,27.6,"08:28:40",1
"19/08/02","08:40",0.0,30.4,74.2,1007.4,119.2,0.6,1.4,113.7,0.23,25.3,27.6,"08:34:32",1
"19/08/02","08:50",0.0,30.8,73.1,1007.6,131.9,0.5,1.2,119.4,0.25,25.5,27.9,"08:41:20",1
"19/08/02","09:00",0.0,30.9,71.9,1007.8,32.2,0.8,1.8,67.7,0.27,25.3,27.9,"08:55:12",1
"19/08/02","09:10",0.0,31.2,71.0,1008.1,62.9,0.7,1.9,13.7,0.30,25.4,28.2,"09:05:36",1
"19/08/02","09:20",0.0,31.4,69.9,1008.6,59.0,0.7,1.7,13.1,0.32,25.3,28.5,"09:12:32",1
"19/08/02","09:30",0.0,31.7,69.4,1008.1,31.0,1.0,2.7,44.1,0.33,25.4,28.4,"09:29:52",1
"19/08/02","09:40",0.0,31.7,69.5,1008.6,41.8,0.8,2.4,77.8,0.35,25.5,28.7,"09:33:44",1
"19/08/02","09:50",0.0,32.3,68.8,1008.3,66.6,0.7,1.7,28.6,0.38,25.9,28.8,"09:48:24",1
"19/08/02","10:00",0.0,32.7,67.6,1008.3,9.3,0.6,2.1,91.5,0.40,26.0,29.1,"09:59:44",1
"19/08/02","10:10",0.0,32.2,67.3,1008.8,142.3,1.2,2.5,162.4,0.41,25.4,29.2,"10:01:12",1
"19/08/02","10:20",0.0,32.6,69.4,1008.6,159.2,1.3,4.5,211.3,0.43,26.3,29.4,"10:18:48",1
"19/08/02","10:30",0.0,33.2,66.0,1008.6,25.9,1.1,4.5,339.5,0.44,26.0,29.5,"10:20:32",1
"19/08/02","10:40",0.0,33.1,65.7,1008.3,326.8,0.7,2.6,337.0,0.46,25.9,29.6,"10:31:36",1
"19/08/02","10:50",0.0,33.7,65.6,1008.6,34.4,0.6,2.0,349.6,0.47,26.4,30.2,"10:45:52",1
"19/08/02","11:00",0.0,33.7,64.6,1008.6,43.9,0.8,2.0,348.6,0.47,26.1,30.2,"10:56:24",1
"19/08/02","11:10",0.0,33.6,63.2,1008.1,86.2,0.8,1.9,124.1,0.49,25.7,30.6,"11:05:44",1
"19/08/02","11:20",0.0,34.0,63.8,1008.1,93.7,0.8,1.8,57.5,0.44,26.2,30.8,"11:15:52",1
"19/08/02","11:30",0.0,34.2,62.8,1008.3,150.8,0.7,1.7,119.7,0.50,26.1,31.0,"11:20:02",1
"19/08/02","11:40",0.0,34.8,61.0,1008.1,78.3,0.7,2.5,357.8,0.54,26.2,31.1,"11:36:56",1
"19/08/02","11:50",0.0,34.5,59.9,1008.1,41.5,0.7,1.9,349.2,0.37,25.6,31.4,"11:41:44",1
"19/08/02","12:00",0.0,34.3,60.2,1008.1,114.0,1.0,1.7,143.4,0.47,25.5,31.4,"11:59:36",1
"19/08/02","12:10",0.0,35.0,59.9,1008.1,156.0,0.8,2.0,132.1,0.55,26.1,31.5,"12:00:24",1
"19/08/02","12:20",0.0,35.2,60.3,1007.8,82.2,0.8,1.9,10.4,0.55,26.4,31.9,"12:11:28",1
"19/08/02","12:30",0.0,35.5,56.6,1007.6,78.6,0.8,1.9,92.1,0.56,25.6,32.0,"12:23:28",1
"19/08/02","12:40",0.0,34.7,58.3,1007.6,301.0,0.8,2.1,205.2,0.46,25.3,32.3,"12:37:28",1
"19/08/02","12:50",0.0,33.9,60.0,1007.4,224.4,0.7,2.5,217.7,0.16,25.1,32.3,"12:41:36",1
"19/08/02","13:00",0.0,35.2,59.0,1006.7,218.5,0.6,1.8,178.1,0.34,26.0,32.4,"12:59:20",1
"19/08/02","13:10",0.0,35.6,57.9,1006.7,162.5,1.2,3.7,200.9,0.50,26.1,32.5,"13:04:48",1
"19/08/02","13:20",0.0,35.3,56.8,1006.7,153.2,1.3,2.7,176.3,0.55,25.5,32.4,"13:11:04",1
"19/08/02","13:30",0.0,35.6,56.8,1006.9,182.4,0.7,1.7,181.0,0.42,25.7,32.7,"13:20:24",1
"19/08/02","13:40",0.0,35.5,58.3,1006.7,151.4,1.3,2.6,227.7,0.52,26.1,32.4,"13:32:00",1
"19/08/02","13:50",0.0,35.3,58.5,1006.2,212.4,1.6,3.6,224.1,0.26,26.0,32.4,"13:44:40",1
"19/08/02","14:00",0.0,35.8,56.5,1006.2,176.8,0.8,2.6,216.2,0.37,25.8,32.5,"13:51:44",1
"19/08/02","14:10",0.0,35.8,53.8,1006.2,275.6,1.3,4.2,220.4,0.53,25.0,32.5,"14:00:02",1
"19/08/02","14:20",0.0,35.9,54.1,1006.2,223.3,1.8,4.3,212.7,0.48,25.2,32.5,"14:18:56",1
"19/08/02","14:30",0.0,35.7,54.7,1006.0,168.3,1.6,4.1,190.5,0.41,25.2,32.5,"14:20:24",1
"19/08/02","14:40",0.0,35.4,56.1,1005.7,240.0,0.7,1.8,194.0,0.19,25.3,32.5,"14:30:08",1
"19/08/02","14:50",0.0,36.2,51.8,1005.0,228.9,0.7,1.7,181.1,0.33,24.7,32.7,"14:41:12",1
"19/08/02","15:00",0.0,36.4,56.5,1005.5,139.5,0.7,2.4,125.7,0.36,26.4,32.6,"14:54:08",1
"19/08/02","15:10",0.0,36.7,52.5,1005.7,212.6,0.7,2.4,207.8,0.38,25.4,32.6,"15:01:44",1
"19/08/02","15:20",0.0,36.5,52.7,1005.2,302.9,0.7,2.1,232.0,0.41,25.3,32.8,"15:18:08",1
"19/08/02","15:30",0.0,36.4,51.3,1005.2,216.2,1.3,3.6,210.6,0.40,24.8,32.7,"15:28:32",1
"19/08/02","15:40",0.0,36.8,51.5,1005.2,301.4,1.1,2.7,353.9,0.39,25.2,32.7,"15:37:44",1
"19/08/02","15:50",0.0,36.9,50.5,1005.5,276.9,0.8,2.5,223.2,0.38,25.0,33.1,"15:44:24",1
"19/08/02","16:00",0.0,37.1,51.5,1005.0,251.8,0.5,1.2,276.2,0.37,25.5,33.1,"15:50:08",1
"19/08/02","16:10",0.0,36.6,51.6,1005.0,12.4,0.7,1.6,338.8,0.26,25.1,33.0,"16:06:24",1
"19/08/02","16:20",0.0,36.0,52.0,1005.0,6.0,0.7,2.7,344.1,0.15,24.6,32.8,"16:12:08",1
"19/08/02","16:30",0.0,36.1,51.3,1004.5,69.0,1.0,2.1,51.7,0.13,24.5,32.9,"16:20:24",1
"19/08/02","16:40",0.0,35.1,57.4,1004.5,121.9,1.3,3.7,122.7,0.10,25.5,32.6,"16:36:32",1
"19/08/02","16:50",0.0,34.3,61.6,1004.1,7.9,1.1,2.6,347.9,0.09,25.9,32.5,"16:42:24",1
"19/08/02","17:00",0.0,34.4,62.2,1003.4,6.0,0.8,2.1,352.0,0.10,26.2,32.3,"16:52:08",1
"19/08/02","17:10",0.0,34.8,61.0,1003.6,5.5,0.8,2.0,352.6,0.14,26.2,32.3,"17:07:52",1
"19/08/02","17:20",0.0,35.0,60.9,1003.6,351.2,1.1,2.8,335.8,0.19,26.4,32.3,"17:19:36",1
"19/08/02","17:30",0.0,35.0,61.5,1003.6,340.0,1.1,2.4,333.4,0.17,26.5,32.4,"17:21:04",1
"19/08/02","17:40",0.0,34.9,60.6,1003.6,346.0,1.2,2.8,339.1,0.14,26.2,32.1,"17:34:00",1
"19/08/02","17:50",0.0,34.9,61.4,1003.4,350.5,1.3,2.9,351.3,0.09,26.4,32.2,"17:45:04",1
"19/08/02","18:00",0.0,34.0,62.5,1003.1,353.3,1.1,3.3,348.0,0.03,25.9,32.0,"17:50:02",1
"19/08/02","18:10",0.0,33.4,64.7,1002.9,341.7,1.6,2.8,330.1,0.01,25.9,31.9,"18:04:08",1
"19/08/02","18:20",0.0,32.9,65.8,1002.6,353.0,1.3,3.2,347.4,0.01,25.7,31.7,"18:15:44",1
"19/08/02","18:30",0.0,32.6,67.0,1002.6,347.1,1.0,1.7,357.0,0.00,25.7,31.4,"18:22:48",1
"19/08/02","18:40",0.0,32.2,68.5,1002.6,296.4,0.8,1.8,335.7,0.00,25.7,31.5,"18:32:56",1
"19/08/02","18:50",0.0,32.3,68.4,1002.9,260.0,0.8,3.3,230.7,0.00,25.8,31.2,"18:48:16",1
"19/08/02","19:00",0.0,32.4,67.8,1002.9,331.7,0.8,2.5,347.0,0.00,25.7,31.2,"18:53:36",1
"19/08/02","19:10",0.0,32.1,69.5,1002.4,358.4,0.7,1.7,344.9,0.00,25.9,31.0,"19:05:52",1
"19/08/02","19:20",0.0,31.7,70.6,1002.6,349.6,1.5,3.4,347.8,0.00,25.7,30.9,"19:15:20",1
"19/08/02","19:30",0.0,31.6,70.9,1002.6,336.0,1.1,3.1,354.0,0.00,25.7,30.7,"19:20:24",1
"19/08/02","19:40",0.0,31.4,71.8,1002.6,325.6,1.1,2.9,345.7,0.00,25.7,30.8,"19:38:00",1
"19/08/02","19:50",0.0,31.2,72.6,1002.9,344.4,1.2,2.1,333.1,0.00,25.7,30.5,"19:41:12",1
"19/08/02","20:00",0.0,30.9,73.4,1002.9,341.7,1.2,3.3,326.2,0.00,25.6,30.5,"19:57:44",1
"19/08/02","20:10",0.0,30.8,73.4,1002.4,353.9,0.7,2.1,51.6,0.00,25.5,30.3,"20:02:24",1
"19/08/02","20:20",0.0,30.8,74.0,1002.6,350.9,1.0,2.1,338.4,0.00,25.7,30.2,"20:11:44",1
"19/08/02","20:30",0.0,30.5,74.6,1002.6,338.6,1.0,2.0,350.0,0.00,25.5,30.1,"20:21:36",1
"19/08/02","20:40",0.0,30.5,74.6,1002.9,321.4,0.8,2.4,343.9,0.00,25.5,30.0,"20:35:44",1
"19/08/02","20:50",0.0,30.3,75.5,1003.1,333.2,0.5,1.3,326.7,0.00,25.5,30.1,"20:40:56",1
"19/08/02","21:00",0.0,30.2,74.8,1003.6,71.4,1.0,2.1,5.4,0.00,25.3,29.8,"20:54:40",1
"19/08/02","21:10",0.0,30.3,74.0,1003.8,86.1,0.3,1.1,115.5,0.00,25.2,29.7,"21:02:08",1
"19/08/02","21:20",0.0,30.0,72.5,1003.6,71.9,0.7,2.7,70.3,0.00,24.6,29.7,"21:18:00",1
"19/08/02","21:30",0.0,29.8,72.5,1003.8,41.5,0.8,2.1,73.1,0.00,24.4,29.6,"21:25:20",1
"19/08/02","21:40",0.0,29.6,72.9,1004.1,342.6,0.6,1.6,10.4,0.00,24.3,29.5,"21:32:08",1
"19/08/02","21:50",0.0,29.4,73.8,1004.3,272.5,0.5,1.7,320.7,0.00,24.3,29.4,"21:41:28",1
"19/08/02","22:00",0.0,29.4,74.3,1004.5,324.3,0.5,1.3,343.0,0.00,24.4,29.4,"21:54:32",1
"19/08/02","22:10",0.0,29.4,75.4,1005.0,307.4,0.5,1.4,343.8,0.00,24.6,29.4,"22:02:48",1
"19/08/02","22:20",0.0,29.2,76.5,1004.5,317.2,0.2,0.8,240.8,0.00,24.7,29.3,"22:18:32",1
"19/08/02","22:30",0.0,28.9,77.8,1004.5,272.5,0.3,0.9,339.2,0.00,24.7,29.3,"22:29:44",1
"19/08/02","22:40",0.0,28.7,79.3,1004.8,339.2,0.8,1.3,324.7,0.00,24.8,29.2,"22:34:08",1
"19/08/02","22:50",0.0,28.4,79.9,1004.8,323.1,0.7,1.8,332.6,0.00,24.6,29.2,"22:41:28",1
"19/08/02","23:00",0.0,28.3,80.3,1004.5,264.6,0.6,1.4,245.5,0.00,24.6,29.0,"22:58:24",1
"19/08/02","23:10",0.0,28.4,80.4,1004.8,329.9,0.7,1.7,334.4,0.00,24.7,28.9,"23:08:00",1
"19/08/02","23:20",0.0,28.1,81.0,1004.8,351.9,0.7,1.9,346.1,0.00,24.6,28.9,"23:11:44",1
"19/08/02","23:30",0.0,27.9,81.3,1005.0,323.3,1.0,1.7,322.5,0.00,24.4,28.9,"23:27:04",1
"19/08/02","23:40",0.0,27.9,81.8,1004.8,314.0,0.7,1.6,327.1,0.00,24.5,28.7,"23:31:28",1
"19/08/02","23:50",0.0,27.8,82.3,1005.0,339.0,0.8,1.4,336.5,0.00,24.5,28.7,"23:41:52",1
"19/08/02","24:00",0.0,27.6,83.0,1004.8,336.7,1.0,1.8,332.4,0.00,24.5,28.8,"23:52:32",1
